Temperature
25 23 23 24 24 25 25 25 24 24 25 24 24 23 23 22 22 22 21 22 22 22 23 22 22 21 21 21 20 20 19 19 19 19 18 18 18 18 18 18 18 18 18 18
23 24 25 25 25 25 25 25 25 25 25 25 24 23 23 22 22 22 22 22 22 22 22 22 22 22 21 21 21 20 20 19 19 19 19 18 18 18 18 18 18 18 18 18
25 24 25 26 26 26 25 25 26 26 25 23 24 23 23 23 23 23 23 23 23 23 23 23 22 22 22 21 21 20 20 20 19 19 19 18 18 18 18 18 18 18 18 18
24 24 25 26 26 26 25 26 26 25 24 22 24 23 23 22 22 22 23 23 23 23 23 23 23 22 22 22 21 21 20 20 19 19 19 18 18 18 18 18 18 18 18 18
24 25 26 26 27 26 26 25 24 24 23 22 22 22 22 21 22 22 22 23 23 23 23 23 23 23 22 22 21 21 20 20 20 19 19 18 18 18 18 18 18 18 18 18
24 25 26 26 27 26 25 23 22 19 20 22 23 23 22 21 22 22 23 23 24 24 24 24 23 23 22 22 21 21 21 20 20 19 19 19 18 18 18 18 18 18 18 18
25 25 25 26 27 26 24 22 21 22 20 21 21 22 21 22 22 22 23 24 24 24 24 23 23 23 22 22 22 21 21 20 20 19 19 19 19 18 18 18 18 18 18 18
23 23 25 26 26 25 24 22 21 22 22 21 21 22 22 23 23 24 24 24 24 24 24 24 24 23 23 22 22 22 21 21 20 20 19 19 19 18 18 18 18 18 18 18
21 22 24 25 25 24 23 21 20 19 20 21 21 21 22 23 23 23 23 24 24 24 24 24 24 24 23 23 22 22 21 21 20 20 19 19 19 18 18 18 18 18 18 18
21 23 24 24 25 24 23 19 18 19 20 22 22 22 22 24 24 22 22 23 24 25 25 24 24 24 23 23 22 22 21 21 20 20 19 19 19 18 18 18 18 18 18 17
21 22 23 24 25 24 22 21 18 17 18 20 22 22 22 22 23 22 22 23 24 25 25 25 25 24 24 23 22 22 21 21 20 20 19 19 19 19 18 18 18 18 18 17
20 19 20 22 23 24 23 21 19 21 20 18 19 21 23 21 21 22 23 24 25 25 25 25 25 24 23 23 22 22 21 21 20 20 20 19 19 19 18 18 18 18 18 17
19 19 20 22 22 23 23 20 19 18 16 16 19 22 22 21 22 23 23 24 25 25 25 25 24 24 23 23 22 22 21 21 20 20 20 19 19 19 18 18 18 18 18 17
19 18 20 21 21 22 23 21 19 19 18 18 19 22 22 22 21 22 24 24 24 25 25 25 25 24 23 23 22 22 21 21 21 20 20 19 19 19 18 18 18 18 18 17
19 19 19 20 22 22 23 23 20 21 20 20 21 20 22 21 21 23 24 24 24 24 24 25 25 24 24 23 23 22 22 21 21 20 20 20 19 19 18 18 18 18 18 17
16 19 19 21 22 23 24 23 22 22 21 21 22 21 21 21 22 22 23 23 23 24 25 25 25 24 24 24 23 22 22 21 21 20 20 20 19 19 18 18 18 18 17 17
15 17 18 19 21 22 22 22 22 23 22 22 22 22 21 20 20 22 23 23 24 25 25 25 25 25 24 24 23 23 22 21 21 21 20 20 19 19 18 18 18 17 17 17
15 15 15 17 20 21 21 21 22 22 22 21 21 21 20 20 22 23 23 24 24 25 25 25 25 25 24 24 23 23 22 21 21 21 20 19 19 19 18 18 17 17 17 17
14 15 15 16 18 20 22 22 21 22 22 20 20 20 20 20 21 21 23 23 24 24 25 25 25 25 24 24 23 23 22 21 21 20 20 19 19 18 18 18 17 17 17 16
14 14 15 15 19 19 21 21 21 21 21 20 19 19 19 19 19 20 22 23 23 23 24 24 24 24 24 23 22 22 21 21 21 20 19 19 18 18 18 18 17 17 17 16
16 15 15 16 18 18 19 19 20 21 20 20 19 19 19 19 19 21 21 22 22 23 23 23 23 23 23 22 22 21 21 21 20 20 19 18 18 18 17 17 17 17 16 16
15 15 15 14 17 18 18 18 19 18 19 19 19 19 19 19 20 20 20 21 21 21 22 22 22 22 22 21 21 21 20 20 19 19 18 18 18 17 17 17 16 16 16 15
13 13 13 14 15 15 15 16 17 18 18 19 19 20 20 19 19 19 19 19 20 20 20 21 21 21 21 20 20 20 19 19 18 18 18 17 17 17 17 16 16 15 15 15
13 12 12 13 14 15 15 16 17 18 18 19 19 19 20 19 19 19 19 19 19 20 20 20 20 20 20 19 19 19 18 18 17 17 17 17 16 16 16 16 15 15 15 15
12 12 12 13 14 15 16 16 17 17 18 19 19 19 19 19 18 18 18 18 18 18 18 19 19 18 18 18 18 17 17 17 17 16 16 16 16 15 15 15 14 14 14 14
11 12 12 13 14 13 15 16 16 17 17 18 18 18 18 18 18 18 18 18 18 17 17 17 17 17 17 17 17 16 16 16 16 16 16 15 15 15 14 14 14 14 14 13
Wind_Speed
5 5 1 5 5 4 2 1 3 4 2 3 4 4 3 7 8 8 8 8 9 9 7 6 7 8 8 8 9 9 9 8 7 5 4 3 3 3 2 4 7 9 9 9
6 2 5 4 4 3 2 0 2 3 2 2 1 3 2 7 10 10 10 11 11 8 6 7 7 8 9 10 10 9 10 9 8 6 5 3 2 2 2 3 4 7 8 9
4 5 2 1 1 2 1 4 3 1 3 5 4 5 2 2 4 5 7 8 9 10 10 9 9 9 9 10 11 10 10 9 8 6 4 3 2 1 1 2 2 4 7 9
4 5 2 0 2 5 3 4 4 3 4 2 3 2 6 3 4 7 8 9 10 10 9 9 9 9 10 10 9 9 9 8 8 7 6 6 5 4 4 3 3 4 6 7
5 2 1 2 4 6 4 3 4 3 4 3 3 1 8 2 5 9 11 11 11 10 11 11 11 11 9 8 8 8 8 7 7 8 8 7 5 4 2 2 3 3 3 5
5 3 4 5 1 3 6 7 7 6 5 2 1 2 7 5 8 7 8 11 11 10 10 10 8 7 7 7 8 8 8 8 7 8 7 7 7 5 4 4 4 3 3 3
4 4 4 3 2 3 6 7 5 5 5 5 3 2 9 8 8 8 9 10 11 10 10 9 9 9 8 9 9 9 9 8 8 8 7 7 7 7 7 5 5 4 3 3
4 6 5 4 7 6 5 10 8 5 4 5 4 4 8 7 7 5 6 7 8 9 9 9 9 9 9 10 10 9 9 8 8 8 7 6 6 5 4 5 4 4 4 4
8 7 5 4 4 10 7 4 8 8 3 1 6 7 9 3 3 1 4 7 9 9 9 9 8 8 9 9 10 10 9 7 7 7 7 6 5 5 5 4 4 3 4 4
10 5 5 3 5 5 6 10 7 7 6 2 6 5 5 6 4 3 5 8 8 8 8 8 7 7 7 8 8 8 8 8 7 7 6 6 5 5 5 4 4 4 4 3
8 6 4 2 5 8 6 6 6 6 6 7 3 7 7 9 8 8 9 9 9 10 9 8 7 6 6 6 7 7 7 7 6 6 6 5 5 5 4 4 4 4 4 4
6 6 5 8 4 4 6 9 9 7 5 5 5 8 7 8 8 8 8 7 7 7 7 6 6 6 6 7 7 8 8 7 7 7 6 5 5 4 4 4 4 4 4 3
7 7 2 6 5 1 4 6 6 7 7 7 6 8 5 4 4 6 7 7 7 7 6 6 6 6 7 7 7 8 8 8 7 6 6 5 5 5 5 4 4 3 3 3
7 6 8 11 9 7 6 6 7 8 6 7 9 9 9 7 6 7 7 7 7 8 8 7 7 7 7 7 7 7 7 7 7 7 6 6 6 5 5 4 3 3 2 2
6 6 7 7 6 6 6 8 9 8 10 10 10 10 12 10 9 8 6 6 7 8 8 9 9 8 7 7 7 7 7 7 7 7 7 6 5 4 4 3 3 2 2 2
3 5 4 3 4 6 4 7 9 7 7 7 5 9 9 6 4 4 6 8 9 10 10 10 9 9 9 9 8 7 7 7 6 7 6 5 4 4 3 3 2 2 1 1
2 5 5 4 2 4 5 8 8 6 5 7 8 8 4 3 5 7 7 9 11 11 10 10 10 10 10 10 9 9 7 6 6 6 5 4 4 3 3 3 3 2 2 1
6 5 4 4 5 7 10 3 4 5 4 5 5 5 4 6 5 3 4 7 8 8 8 8 8 8 7 7 7 7 6 7 6 6 5 4 4 3 2 2 2 1 1 1
5 7 5 5 6 4 5 1 3 4 3 3 4 4 2 1 3 3 2 4 6 6 6 6 6 6 6 6 6 7 6 6 5 5 5 4 4 4 3 3 2 2 2 2
5 5 6 5 5 7 6 3 3 3 2 3 2 2 1 4 1 4 3 1 2 3 3 4 5 6 6 5 6 7 6 5 4 4 4 3 4 4 4 4 2 1 2 2
3 4 4 5 4 5 5 7 1 5 6 3 1 2 3 4 4 2 2 3 3 4 5 5 7 6 4 5 7 6 5 4 3 2 2 3 3 3 3 3 2 2 2 1
4 4 4 5 4 6 5 4 2 4 3 1 1 1 3 3 2 3 4 5 5 6 6 6 7 6 5 5 7 6 3 2 3 4 3 3 3 3 3 3 2 2 2 2
2 4 5 5 5 3 3 3 4 2 2 1 1 1 4 5 4 5 5 6 6 6 5 5 7 7 6 4 4 5 2 3 3 4 3 2 3 3 3 3 2 1 2 2
2 1 3 0 2 4 4 4 5 3 2 1 1 2 4 5 5 6 6 5 5 5 4 5 7 7 5 4 4 3 3 4 4 3 2 2 3 2 2 2 2 2 1 1
2 1 2 0 3 4 5 6 6 5 5 5 5 4 4 6 6 5 5 5 5 5 5 5 6 5 4 4 4 4 4 4 4 3 3 2 2 2 2 2 2 1 1 1
2 3 3 3 4 2 4 5 5 4 5 4 5 5 4 5 6 5 5 5 5 5 5 6 6 5 4 4 4 4 4 4 4 2 2 1 1 2 2 2 2 4 3 3
Wind_Direction
35 68 177 215 192 185 176 206 285 270 248 157 211 247 223 180 182 186 190 193 200 208 204 188 183 178 174 177 181 186 188 187 175 170 176 183 199 202 204 212 206 204 205 203
35 302 241 205 181 163 157 290 299 321 26 115 192 293 257 192 203 200 197 199 203 199 192 191 188 184 184 185 187 188 191 187 184 185 177 174 173 192 201 214 211 209 207 206
189 240 236 158 131 133 213 194 215 221 34 43 72 344 307 236 216 211 206 202 204 202 200 196 196 197 193 193 193 195 193 189 186 175 149 127 107 76 154 208 216 220 213 211
233 257 240 221 217 154 243 230 184 144 94 351 61 292 285 257 249 226 214 201 204 204 198 198 200 200 202 201 194 192 187 184 180 171 174 176 188 203 214 207 216 227 221 220
237 234 177 226 221 175 201 70 93 91 113 55 32 134 286 298 251 241 222 210 207 201 196 202 205 205 201 193 187 185 179 183 181 182 187 190 204 209 205 202 225 236 230 226
238 246 223 217 210 156 126 72 55 49 67 44 281 174 277 239 227 240 222 211 204 197 196 203 203 192 187 182 179 177 178 188 187 189 190 194 204 203 201 210 221 231 235 232
297 289 253 196 102 52 95 89 34 8 15 258 290 223 253 255 242 228 220 209 198 190 191 194 192 189 186 184 184 181 184 193 190 191 196 201 205 202 206 211 217 221 228 233
193 274 248 200 180 174 158 136 154 188 214 277 323 248 259 273 271 232 203 186 178 183 191 194 194 191 191 190 186 184 188 194 189 192 199 198 196 197 207 212 213 219 229 237
179 240 281 246 193 140 132 149 153 129 150 315 297 297 305 329 2 111 152 159 178 188 192 194 188 186 189 189 188 186 185 186 187 191 191 191 192 198 209 214 215 224 232 239
159 212 280 299 89 47 138 140 107 120 142 226 298 293 262 281 272 237 195 189 192 189 190 191 187 185 186 186 182 177 178 183 184 186 192 196 196 202 208 211 220 225 234 239
149 173 279 359 172 172 114 106 107 112 143 152 224 270 230 228 231 224 219 203 195 192 192 191 186 178 171 169 170 175 178 177 180 186 191 191 194 198 202 216 229 230 234 236
158 144 226 254 252 185 168 164 147 152 192 169 171 259 261 238 237 222 223 211 199 193 186 178 171 160 163 171 175 180 182 183 187 185 184 190 192 194 204 221 231 230 233 236
143 133 151 324 331 162 161 155 150 125 121 151 170 255 291 288 250 227 220 210 191 182 174 165 163 170 177 179 181 185 186 188 185 179 182 188 195 199 210 220 225 225 227 236
136 136 172 200 213 191 179 168 153 132 150 186 214 245 284 276 255 240 221 201 187 184 180 174 176 183 184 182 185 185 187 185 181 180 185 195 203 206 213 216 215 217 219 227
132 172 200 216 206 178 187 183 173 175 178 181 220 225 249 247 238 236 218 189 181 185 187 187 187 186 184 181 183 184 185 183 180 180 190 203 204 201 204 209 212 209 210 223
96 164 169 224 207 193 198 198 186 191 180 200 219 249 250 254 244 237 214 192 193 199 199 193 187 182 184 185 184 182 183 180 174 181 196 199 191 189 194 197 189 182 192 211
111 128 140 215 204 128 224 211 188 187 189 176 203 238 265 264 236 224 214 201 202 201 195 190 189 188 188 187 181 182 181 169 167 174 180 184 181 188 194 184 172 186 192 185
147 127 139 148 119 194 235 235 179 171 197 199 214 246 241 241 249 238 208 202 206 196 190 191 189 185 184 176 171 165 158 161 168 173 178 176 171 179 175 166 179 198 195 191
159 141 128 136 169 237 291 223 157 163 227 220 227 261 291 358 49 342 273 207 201 195 186 184 179 167 154 154 154 147 151 157 168 180 186 185 180 177 174 185 195 197 187 195
73 102 120 129 149 206 231 296 317 125 251 289 240 247 187 105 101 277 315 240 165 142 143 136 127 122 129 135 134 137 150 157 178 194 196 181 175 180 184 189 187 188 186 192
62 64 117 144 175 243 268 302 351 157 232 281 240 227 182 178 206 255 43 63 82 92 94 102 105 109 116 126 129 133 142 168 179 161 159 155 158 169 171 163 162 158 156 162
156 138 152 138 162 237 327 0 133 221 262 284 246 200 162 137 86 69 71 74 76 78 77 88 97 94 93 115 131 133 151 171 133 132 140 156 158 157 152 148 148 148 159 173
165 180 179 180 201 259 311 294 294 266 262 276 182 147 132 113 96 83 75 73 74 77 79 85 94 88 78 82 114 126 136 121 120 117 124 140 135 133 137 145 159 167 177 192
334 80 121 94 305 322 341 348 353 357 341 328 113 125 121 117 116 105 93 78 68 69 76 87 94 96 88 77 78 100 109 104 108 113 107 109 124 125 118 122 150 171 187 210
265 68 93 53 301 342 355 358 351 359 21 38 51 72 102 112 109 108 99 88 75 64 57 72 81 83 81 81 79 74 85 102 109 111 106 97 107 130 118 102 89 152 158 202
247 182 158 210 236 213 276 313 341 3 17 29 52 58 72 101 114 110 101 92 88 81 72 71 73 71 64 73 73 64 69 93 104 101 104 114 121 118 124 127 86 56 66 65
Height
1510 1516 1522 1520 1518 1519 1522 1527 1530 1524 1516 1519 1521 1521 1519 1520 1522 1523 1525 1527 1528 1530 1533 1535 1538 1540 1543 1545 1547 1548 1550 1552 1554 1555 1556 1558 1560 1562 1563 1565 1566 1568 1569 1571
1517 1520 1514 1513 1515 1517 1521 1526 1527 1522 1516 1519 1523 1523 1519 1519 1519 1520 1522 1524 1526 1529 1532 1534 1536 1538 1540 1543 1545 1547 1548 1550 1552 1554 1555 1557 1559 1560 1561 1563 1565 1566 1567 1569
1517 1515 1510 1511 1514 1518 1521 1524 1523 1523 1521 1522 1524 1529 1523 1519 1519 1521 1521 1523 1525 1527 1529 1532 1534 1536 1538 1540 1542 1545 1546 1549 1551 1553 1554 1555 1557 1558 1559 1561 1562 1564 1565 1567
1514 1510 1510 1511 1513 1516 1524 1515 1517 1520 1529 1537 1532 1546 1528 1521 1519 1518 1518 1520 1522 1524 1527 1530 1532 1534 1536 1539 1541 1543 1545 1547 1549 1551 1552 1553 1554 1555 1557 1558 1560 1561 1563 1564
1513 1509 1509 1512 1510 1511 1515 1513 1517 1522 1530 1540 1537 1545 1537 1524 1521 1516 1514 1515 1518 1521 1524 1527 1529 1532 1535 1537 1540 1542 1544 1545 1547 1549 1550 1551 1552 1554 1555 1556 1557 1558 1560 1561
1509 1506 1506 1506 1505 1506 1510 1518 1526 1535 1542 1552 1540 1545 1541 1527 1517 1511 1510 1511 1514 1518 1522 1525 1528 1530 1533 1535 1538 1540 1542 1543 1545 1546 1548 1549 1550 1551 1552 1553 1554 1555 1557 1558
1512 1507 1503 1502 1507 1509 1514 1532 1554 1556 1564 1559 1542 1544 1538 1513 1508 1506 1506 1508 1511 1515 1519 1522 1525 1527 1530 1533 1535 1538 1540 1541 1543 1544 1545 1547 1548 1548 1549 1550 1551 1552 1554 1555
1522 1523 1505 1501 1504 1512 1516 1527 1553 1563 1566 1559 1544 1544 1524 1507 1503 1502 1503 1506 1509 1513 1516 1520 1523 1525 1528 1530 1533 1535 1537 1539 1541 1542 1543 1544 1545 1546 1547 1548 1549 1550 1551 1552
1523 1521 1502 1498 1498 1505 1518 1526 1529 1550 1555 1559 1550 1537 1517 1504 1502 1502 1503 1505 1508 1511 1514 1517 1520 1523 1526 1528 1531 1533 1535 1537 1539 1540 1541 1542 1543 1544 1545 1545 1546 1547 1548 1548
1508 1516 1504 1499 1499 1504 1508 1520 1536 1549 1563 1564 1552 1542 1532 1511 1506 1504 1503 1504 1506 1509 1512 1515 1518 1521 1524 1527 1530 1532 1534 1536 1537 1539 1540 1540 1541 1542 1543 1543 1544 1545 1545 1546
1500 1512 1509 1504 1504 1509 1514 1521 1532 1546 1548 1562 1561 1546 1512 1507 1502 1502 1501 1502 1504 1507 1510 1513 1516 1520 1523 1526 1528 1531 1532 1534 1535 1537 1538 1539 1539 1540 1541 1541 1542 1542 1543 1543
1498 1511 1519 1510 1500 1498 1503 1512 1525 1538 1546 1552 1554 1541 1500 1499 1498 1498 1499 1501 1503 1506 1509 1512 1515 1518 1521 1524 1527 1529 1531 1532 1534 1535 1536 1537 1537 1538 1539 1539 1540 1540 1540 1540
1497 1511 1524 1521 1514 1505 1504 1510 1515 1525 1541 1553 1552 1533 1498 1497 1496 1496 1497 1499 1502 1505 1508 1511 1514 1517 1520 1522 1525 1527 1529 1530 1532 1533 1534 1535 1535 1536 1537 1537 1538 1538 1538 1538
1489 1505 1514 1521 1516 1506 1505 1508 1513 1520 1536 1544 1538 1522 1504 1498 1496 1494 1495 1497 1500 1503 1506 1509 1512 1515 1518 1521 1523 1525 1527 1529 1530 1531 1532 1533 1533 1534 1535 1536 1536 1536 1536 1536
1488 1501 1501 1499 1496 1497 1497 1501 1507 1510 1515 1524 1518 1516 1502 1494 1492 1491 1492 1495 1498 1500 1503 1506 1509 1512 1515 1518 1521 1523 1525 1527 1528 1529 1530 1531 1532 1533 1533 1534 1534 1534 1534 1534
1490 1497 1499 1497 1494 1494 1495 1495 1499 1501 1504 1507 1506 1505 1491 1489 1490 1490 1491 1492 1494 1497 1500 1503 1506 1510 1513 1515 1518 1521 1523 1524 1526 1527 1528 1530 1531 1531 1531 1532 1532 1532 1532 1532
1494 1498 1505 1507 1497 1497 1505 1495 1495 1495 1494 1497 1502 1495 1488 1488 1486 1486 1487 1489 1490 1492 1496 1500 1503 1506 1509 1512 1515 1517 1520 1522 1524 1525 1526 1528 1529 1529 1530 1530 1530 1530 1530 1530
1492 1499 1506 1509 1506 1517 1499 1485 1485 1488 1489 1489 1489 1487 1486 1485 1483 1484 1485 1486 1488 1490 1493 1496 1500 1504 1507 1510 1513 1515 1518 1520 1521 1523 1524 1526 1527 1527 1527 1528 1528 1528 1528 1528
1486 1494 1506 1513 1513 1506 1492 1484 1485 1489 1490 1486 1486 1484 1484 1483 1483 1483 1483 1484 1486 1488 1491 1494 1498 1501 1505 1508 1510 1513 1515 1517 1519 1520 1521 1523 1524 1524 1525 1525 1525 1526 1526 1526
1487 1490 1502 1510 1511 1513 1495 1483 1482 1485 1493 1485 1484 1483 1483 1483 1489 1485 1483 1483 1484 1486 1489 1492 1495 1499 1502 1505 1508 1510 1512 1514 1516 1518 1519 1520 1521 1522 1521 1522 1522 1523 1523 1523
1493 1497 1502 1506 1506 1501 1488 1483 1482 1497 1494 1484 1483 1482 1482 1482 1484 1483 1482 1483 1484 1486 1488 1491 1494 1496 1500 1503 1505 1507 1509 1511 1514 1515 1517 1517 1518 1519 1519 1520 1520 1520 1520 1521
1496 1499 1503 1506 1506 1503 1486 1484 1488 1488 1483 1482 1481 1481 1481 1481 1482 1482 1482 1483 1484 1486 1488 1490 1492 1494 1497 1500 1502 1504 1507 1509 1511 1512 1513 1514 1514 1515 1516 1517 1517 1517 1517 1517
1495 1495 1497 1498 1499 1492 1488 1487 1486 1484 1483 1482 1481 1481 1481 1481 1482 1483 1484 1484 1485 1487 1488 1490 1491 1493 1496 1498 1501 1502 1504 1506 1508 1508 1509 1509 1510 1511 1511 1512 1514 1515 1515 1514
1492 1491 1493 1494 1491 1489 1488 1486 1485 1484 1483 1482 1481 1482 1482 1482 1483 1484 1485 1486 1487 1488 1489 1490 1492 1493 1495 1497 1499 1501 1503 1504 1506 1506 1506 1507 1507 1508 1509 1509 1510 1511 1511 1511
1493 1492 1493 1494 1491 1488 1487 1487 1486 1485 1484 1483 1482 1482 1483 1483 1484 1485 1486 1487 1488 1489 1490 1491 1492 1494 1495 1496 1498 1499 1500 1501 1503 1503 1503 1504 1505 1506 1507 1507 1507 1507 1508 1508
1492 1492 1493 1494 1491 1491 1489 1488 1487 1486 1484 1484 1483 1483 1484 1485 1485 1486 1487 1488 1489 1490 1491 1492 1493 1495 1496 1497 1497 1498 1499 1500 1501 1502 1502 1502 1504 1504 1504 1505 1504 1504 1505 1504